Time,TemperatureF,DewpointF,PressureIn,WindDirection,WindDirectionDegrees,WindSpeedMPH,WindSpeedGustMPH,Humidity,HourlyPrecipIn,Conditions,Clouds,dailyrainin,SoftwareType,DateUTC
2013-12-29 00:01:00,39.6,33.0,30.09,SSW,203,0.0,0.0,77,0.04,-RA,,0.00,WeatherDisplay:10.37,2013-12-29 05:01:00,
2013-12-29 00:02:00,39.6,33.0,30.09,SSW,203,0.0,0.0,77,0.04,-RA,,0.00,WeatherDisplay:10.37,2013-12-29 05:02:00,
2013-12-29 00:03:00,39.6,33.3,30.09,SSW,203,0.0,0.0,78,0.04,-RA,,0.01,WeatherDisplay:10.37,2013-12-29 05:03:00,
2013-12-29 00:05:00,39.6,33.3,30.09,SSW,203,0.0,0.0,78,0.00,-RA,,0.01,WeatherDisplay:10.37,2013-12-29 05:05:00,
2013-12-29 00:09:00,39.5,33.5,30.08,SSW,202,0.0,0.0,79,0.01,-RA,,0.02,WeatherDisplay:10.37,2013-12-29 05:09:00,
2013-12-29 00:14:00,39.3,33.6,30.08,SSW,203,0.0,0.0,80,0.01,-RA,,0.03,WeatherDisplay:10.37,2013-12-29 05:14:00,
2013-12-29 00:19:00,39.2,33.5,30.08,SSW,203,0.0,0.0,80,0.02,-RA,,0.03,WeatherDisplay:10.37,2013-12-29 05:19:00,
2013-12-29 00:24:00,39.1,33.8,30.07,SSW,203,0.0,0.0,81,0.03,-RA,,0.04,WeatherDisplay:10.37,2013-12-29 05:24:00,
2013-12-29 00:29:00,38.9,33.6,30.06,SSW,202,0.0,0.0,81,0.03,-RA,,0.04,WeatherDisplay:10.37,2013-12-29 05:29:00,
2013-12-29 00:34:00,38.9,33.9,30.05,SSW,202,0.0,0.0,82,0.02,-RA,,0.05,WeatherDisplay:10.37,2013-12-29 05:34:00,
2013-12-29 00:39:00,38.9,33.9,30.05,SSW,202,0.0,0.0,82,0.03,-RA,,0.05,WeatherDisplay:10.37,2013-12-29 05:39:00,
2013-12-29 00:44:00,38.9,33.9,30.04,SSW,203,0.0,0.0,82,0.03,-RA,,0.06,WeatherDisplay:10.37,2013-12-29 05:44:00,
2013-12-29 00:49:00,38.8,34.1,30.03,SSW,203,0.0,0.0,83,0.03,-RA,,0.06,WeatherDisplay:10.37,2013-12-29 05:49:00,
2013-12-29 00:54:00,38.8,34.1,30.02,SSW,202,0.0,0.0,83,0.02,-RA,,0.06,WeatherDisplay:10.37,2013-12-29 05:54:00,
2013-12-29 00:59:00,38.7,34.0,30.02,SSW,202,1.2,0.0,83,0.02,-RA,,0.07,WeatherDisplay:10.37,2013-12-29 05:59:00,
2013-12-29 01:04:00,38.7,34.3,30.01,SSW,203,0.0,0.0,84,0.07,-RA,,0.08,WeatherDisplay:10.37,2013-12-29 06:04:00,
2013-12-29 01:09:00,38.6,34.2,30.01,SSW,203,0.0,0.0,84,0.06,-RA,,0.08,WeatherDisplay:10.37,2013-12-29 06:09:00,
2013-12-29 01:14:00,38.6,34.2,30.01,SSW,202,1.0,0.0,84,0.06,-RA,,0.08,WeatherDisplay:10.37,2013-12-29 06:14:00,
2013-12-29 01:19:00,38.6,34.2,30.00,SSW,202,2.3,2.3,84,0.05,-RA,,0.08,WeatherDisplay:10.37,2013-12-29 06:19:00,
2013-12-29 01:24:00,38.6,34.2,30.00,SSW,203,0.0,0.0,84,0.05,-RA,,0.09,WeatherDisplay:10.37,2013-12-29 06:24:00,
2013-12-29 01:29:00,38.6,34.5,29.99,SSW,203,0.0,0.0,85,0.05,-RA,,0.09,WeatherDisplay:10.37,2013-12-29 06:29:00,
2013-12-29 01:34:00,38.6,34.5,29.99,SSW,203,1.2,0.0,85,0.06,-RA,,0.10,WeatherDisplay:10.37,2013-12-29 06:34:00,
2013-12-29 01:39:00,38.7,34.6,29.99,SSW,202,0.0,0.0,85,0.05,-RA,,0.10,WeatherDisplay:10.37,2013-12-29 06:39:00,
2013-12-29 01:44:00,38.6,34.5,29.99,SSW,203,0.0,0.0,85,0.04,-RA,,0.10,WeatherDisplay:10.37,2013-12-29 06:44:00,
2013-12-29 01:49:00,38.7,34.6,29.99,SSW,203,0.0,0.0,85,0.04,-RA,,0.10,WeatherDisplay:10.37,2013-12-29 06:49:00,
2013-12-29 01:54:00,38.7,34.6,29.99,SSW,203,0.0,0.0,85,0.05,-RA,,0.11,WeatherDisplay:10.37,2013-12-29 06:54:00,
2013-12-29 01:59:00,38.7,34.9,29.99,SSW,203,0.0,0.0,86,0.05,-RA,,0.12,WeatherDisplay:10.37,2013-12-29 06:59:00,
2013-12-29 02:04:00,38.7,34.9,29.99,SSW,202,0.0,0.0,86,0.05,-RA,,0.13,WeatherDisplay:10.37,2013-12-29 07:04:00,
2013-12-29 02:09:00,38.7,34.9,29.99,SSW,203,0.0,0.0,86,0.06,-RA,,0.14,WeatherDisplay:10.37,2013-12-29 07:09:00,
2013-12-29 02:14:00,38.7,34.9,29.98,SSW,203,0.0,0.0,86,0.06,-RA,,0.14,WeatherDisplay:10.37,2013-12-29 07:14:00,
2013-12-29 02:19:00,38.7,34.9,29.98,SSW,203,0.0,0.0,86,0.07,-RA,,0.15,WeatherDisplay:10.37,2013-12-29 07:19:00,
2013-12-29 02:24:00,38.8,35.0,29.98,SSW,203,0.0,0.0,86,0.07,-RA,,0.16,WeatherDisplay:10.37,2013-12-29 07:24:00,
2013-12-29 02:29:00,38.8,35.0,29.98,SSW,202,0.0,0.0,86,0.07,-RA,,0.16,WeatherDisplay:10.37,2013-12-29 07:29:00,
2013-12-29 02:34:00,38.8,35.0,29.98,SSW,203,0.0,0.0,86,0.08,-RA,,0.18,WeatherDisplay:10.37,2013-12-29 07:34:00,
2013-12-29 02:39:00,38.8,35.0,29.98,SSW,203,0.0,0.0,86,0.08,-RA,,0.19,WeatherDisplay:10.37,2013-12-29 07:39:00,
2013-12-29 02:44:00,38.8,35.0,29.99,SSW,202,0.0,0.0,86,0.10,-RA,,0.20,WeatherDisplay:10.37,2013-12-29 07:44:00,
2013-12-29 02:49:00,38.8,35.3,29.99,SSW,203,0.0,0.0,87,0.11,-RA,,0.21,WeatherDisplay:10.37,2013-12-29 07:49:00,
2013-12-29 02:54:00,38.8,35.0,29.99,SSW,203,0.0,0.0,86,0.11,-RA,,0.22,WeatherDisplay:10.37,2013-12-29 07:54:00,
2013-12-29 02:59:00,38.8,35.3,29.99,SSW,203,0.0,0.0,87,0.10,-RA,,0.22,WeatherDisplay:10.37,2013-12-29 07:59:00,
2013-12-29 03:04:00,38.8,35.3,29.98,SSW,202,0.0,0.0,87,0.10,RA,,0.24,WeatherDisplay:10.37,2013-12-29 08:04:00,
2013-12-29 03:09:00,38.8,35.3,29.98,SSW,203,0.0,0.0,87,0.10,RA,,0.24,WeatherDisplay:10.37,2013-12-29 08:09:00,
2013-12-29 03:14:00,38.8,35.3,29.97,SSW,203,0.0,0.0,87,0.11,RA,,0.25,WeatherDisplay:10.37,2013-12-29 08:14:00,
2013-12-29 03:19:00,38.9,35.4,29.97,SSW,203,0.0,0.0,87,0.11,RA,,0.26,WeatherDisplay:10.37,2013-12-29 08:19:00,
2013-12-29 03:24:00,38.9,35.4,29.97,SSW,202,0.0,0.0,87,0.10,RA,,0.26,WeatherDisplay:10.37,2013-12-29 08:24:00,
2013-12-29 03:29:00,38.9,35.4,29.97,SSW,203,0.0,0.0,87,0.11,RA,,0.27,WeatherDisplay:10.37,2013-12-29 08:29:00,
2013-12-29 03:34:00,38.9,35.4,29.96,SSW,203,0.0,0.0,87,0.10,RA,,0.28,WeatherDisplay:10.37,2013-12-29 08:34:00,
2013-12-29 03:39:00,39.0,35.5,29.95,SSW,202,0.0,0.0,87,0.09,RA,,0.28,WeatherDisplay:10.37,2013-12-29 08:39:00,
2013-12-29 03:44:00,39.0,35.5,29.95,SSW,203,0.0,0.0,87,0.09,RA,,0.29,WeatherDisplay:10.37,2013-12-29 08:44:00,
2013-12-29 03:49:00,39.0,35.5,29.94,SSW,203,0.0,0.0,87,0.10,RA,,0.30,WeatherDisplay:10.37,2013-12-29 08:49:00,
2013-12-29 03:54:00,39.1,35.6,29.93,SSW,202,0.0,0.0,87,0.08,RA,,0.30,WeatherDisplay:10.37,2013-12-29 08:54:00,
2013-12-29 03:59:00,39.1,35.8,29.93,SSW,202,0.0,0.0,88,0.09,RA,,0.31,WeatherDisplay:10.37,2013-12-29 08:59:00,
2013-12-29 04:04:00,39.1,35.8,29.92,SSW,203,2.3,2.3,88,0.08,-RA,,0.31,WeatherDisplay:10.37,2013-12-29 09:04:00,
2013-12-29 04:09:00,39.0,35.7,29.92,SSW,203,0.0,0.0,88,0.07,-RA,,0.31,WeatherDisplay:10.37,2013-12-29 09:09:00,
2013-12-29 04:14:00,39.1,35.8,29.92,SSW,202,0.0,0.0,88,0.06,-RA,,0.31,WeatherDisplay:10.37,2013-12-29 09:14:00,
2013-12-29 04:19:00,39.1,35.8,29.91,SSW,202,1.0,0.0,88,0.05,-RA,,0.31,WeatherDisplay:10.37,2013-12-29 09:19:00,
2013-12-29 04:24:00,39.1,35.8,29.91,SSW,203,1.0,1.0,88,0.05,-RA,,0.31,WeatherDisplay:10.37,2013-12-29 09:24:00,
2013-12-29 04:29:00,39.1,35.8,29.91,SSW,203,1.2,0.0,88,0.04,-RA,,0.32,WeatherDisplay:10.37,2013-12-29 09:29:00,
2013-12-29 04:34:00,39.1,35.8,29.91,SSW,203,1.2,1.2,88,0.04,-RA,,0.32,WeatherDisplay:10.37,2013-12-29 09:34:00,
2013-12-29 04:39:00,39.1,35.8,29.91,SSW,202,0.0,0.0,88,0.04,-RA,,0.32,WeatherDisplay:10.37,2013-12-29 09:39:00,
2013-12-29 04:44:00,39.1,35.8,29.91,SSW,203,1.0,0.0,88,0.03,-RA,,0.32,WeatherDisplay:10.37,2013-12-29 09:44:00,
2013-12-29 04:49:00,39.1,35.8,29.91,SSW,203,0.0,0.0,88,0.02,-RA,,0.32,WeatherDisplay:10.37,2013-12-29 09:49:00,
2013-12-29 04:54:00,39.1,35.8,29.91,SSW,202,0.0,0.0,88,0.02,-RA,,0.32,WeatherDisplay:10.37,2013-12-29 09:54:00,
2013-12-29 04:59:00,39.1,35.8,29.92,SSW,203,0.0,0.0,88,0.02,-RA,,0.33,WeatherDisplay:10.37,2013-12-29 09:59:00,
2013-12-29 05:04:00,39.1,35.8,29.92,SSW,203,0.0,0.0,88,0.03,-RA,,0.34,WeatherDisplay:10.37,2013-12-29 10:04:00,
2013-12-29 05:09:00,39.0,35.7,29.92,SSW,202,0.0,0.0,88,0.03,-RA,,0.34,WeatherDisplay:10.37,2013-12-29 10:09:00,
2013-12-29 05:14:00,39.1,35.8,29.91,SSW,203,0.0,0.0,88,0.04,-RA,,0.35,WeatherDisplay:10.37,2013-12-29 10:14:00,
2013-12-29 05:19:00,39.0,35.7,29.91,SSW,203,0.0,0.0,88,0.05,-RA,,0.36,WeatherDisplay:10.37,2013-12-29 10:19:00,
2013-12-29 05:24:00,39.0,35.7,29.91,SSW,203,0.0,0.0,88,0.06,-RA,,0.37,WeatherDisplay:10.37,2013-12-29 10:24:00,
2013-12-29 05:29:00,39.1,35.8,29.92,SSW,203,0.0,0.0,88,0.07,-RA,,0.38,WeatherDisplay:10.37,2013-12-29 10:29:00,
2013-12-29 05:34:00,39.1,35.8,29.92,SSW,203,0.0,0.0,88,0.07,-RA,,0.39,WeatherDisplay:10.37,2013-12-29 10:34:00,
2013-12-29 05:39:00,39.0,35.7,29.92,SSW,203,0.0,0.0,88,0.08,-RA,,0.40,WeatherDisplay:10.37,2013-12-29 10:39:00,
2013-12-29 05:44:00,39.0,35.7,29.92,SSW,203,0.0,0.0,88,0.09,-RA,,0.41,WeatherDisplay:10.37,2013-12-29 10:44:00,
2013-12-29 05:49:00,39.0,35.7,29.91,SSW,203,1.2,1.2,88,0.10,-RA,,0.42,WeatherDisplay:10.37,2013-12-29 10:49:00,
2013-12-29 05:54:00,39.0,36.0,29.91,SSW,202,0.0,0.0,89,0.11,-RA,,0.43,WeatherDisplay:10.37,2013-12-29 10:54:00,
2013-12-29 05:59:00,38.9,35.9,29.91,SSW,203,2.3,2.3,89,0.10,-RA,,0.43,WeatherDisplay:10.37,2013-12-29 10:59:00,
2013-12-29 06:04:00,38.8,35.8,29.92,SSW,203,2.3,2.3,89,0.10,RA,,0.44,WeatherDisplay:10.37,2013-12-29 11:04:00,
2013-12-29 06:09:00,38.7,35.7,29.92,SSW,202,0.0,0.0,89,0.10,RA,,0.44,WeatherDisplay:10.37,2013-12-29 11:09:00,
2013-12-29 06:14:00,38.7,35.7,29.92,SSW,203,1.2,0.0,89,0.10,RA,,0.45,WeatherDisplay:10.37,2013-12-29 11:14:00,
2013-12-29 06:19:00,38.6,35.6,29.93,SSW,203,1.2,1.2,89,0.09,RA,,0.45,WeatherDisplay:10.37,2013-12-29 11:19:00,
2013-12-29 06:24:00,38.7,35.7,29.92,SSW,203,0.0,0.0,89,0.09,RA,,0.46,WeatherDisplay:10.37,2013-12-29 11:24:00,
2013-12-29 06:29:00,38.6,35.6,29.92,SSW,203,2.3,2.3,89,0.09,RA,,0.48,WeatherDisplay:10.37,2013-12-29 11:29:00,
2013-12-29 06:34:00,38.6,35.6,29.91,SSW,203,1.2,1.2,89,0.09,RA,,0.48,WeatherDisplay:10.37,2013-12-29 11:34:00,
2013-12-29 06:39:00,38.5,35.5,29.91,SSW,202,0.0,0.0,89,0.09,RA,,0.49,WeatherDisplay:10.37,2013-12-29 11:39:00,
2013-12-29 06:44:00,38.5,35.5,29.91,SSW,202,0.0,0.0,89,0.09,RA,,0.50,WeatherDisplay:10.37,2013-12-29 11:44:00,
2013-12-29 06:49:00,38.4,35.4,29.91,SSW,203,0.0,0.0,89,0.08,RA,,0.50,WeatherDisplay:10.37,2013-12-29 11:49:00,
2013-12-29 06:54:00,38.4,35.4,29.91,SSW,203,1.2,0.0,89,0.07,OVC,,0.50,WeatherDisplay:10.37,2013-12-29 11:54:00,
2013-12-29 06:59:00,38.4,35.4,29.91,SSW,203,0.0,0.0,89,0.07,OVC,,0.50,WeatherDisplay:10.37,2013-12-29 11:59:00,
2013-12-29 07:04:00,38.3,35.3,29.91,SSW,202,0.0,0.0,89,0.07,-RA,,0.51,WeatherDisplay:10.37,2013-12-29 12:04:00,
2013-12-29 07:09:00,38.3,35.3,29.91,SSW,203,1.2,1.2,89,0.07,-RA,,0.51,WeatherDisplay:10.37,2013-12-29 12:09:00,
2013-12-29 07:14:00,38.3,35.3,29.91,SSW,203,1.2,1.2,89,0.06,-RA,,0.51,WeatherDisplay:10.37,2013-12-29 12:14:00,
2013-12-29 07:19:00,38.3,35.3,29.91,SSW,203,0.0,0.0,89,0.06,-RA,,0.51,WeatherDisplay:10.37,2013-12-29 12:19:00,
2013-12-29 07:24:00,38.3,35.3,29.91,SSW,202,2.3,2.3,89,0.05,-RA,,0.52,WeatherDisplay:10.37,2013-12-29 12:24:00,
2013-12-29 07:29:00,38.3,35.3,29.91,SSW,202,1.2,1.2,89,0.05,-RA,,0.52,WeatherDisplay:10.37,2013-12-29 12:29:00,
2013-12-29 07:34:00,38.3,35.3,29.92,SSW,203,2.3,2.3,89,0.04,-RA,,0.52,WeatherDisplay:10.37,2013-12-29 12:34:00,
2013-12-29 07:39:00,38.3,35.3,29.91,SSW,202,0.0,0.0,89,0.03,-RA,,0.52,WeatherDisplay:10.37,2013-12-29 12:39:00,
2013-12-29 07:44:00,38.2,35.2,29.91,SSW,202,2.3,2.3,89,0.02,-RA,,0.52,WeatherDisplay:10.37,2013-12-29 12:44:00,
2013-12-29 07:49:00,38.2,35.2,29.91,SSW,202,1.2,1.2,89,0.03,-RA,,0.53,WeatherDisplay:10.37,2013-12-29 12:49:00,
2013-12-29 07:54:00,38.2,35.2,29.92,SSW,203,3.5,3.5,89,0.03,-RA,,0.53,WeatherDisplay:10.37,2013-12-29 12:54:00,
2013-12-29 07:59:00,38.2,35.2,29.92,SSW,203,3.5,3.5,89,0.03,-RA,,0.53,WeatherDisplay:10.37,2013-12-29 12:59:00,
2013-12-29 08:04:00,38.1,35.1,29.92,SSW,203,3.0,3.0,89,0.02,-RA,,0.53,WeatherDisplay:10.37,2013-12-29 13:04:00,
2013-12-29 08:09:00,38.1,35.1,29.92,SSW,203,2.3,2.3,89,0.03,-RA,,0.54,WeatherDisplay:10.37,2013-12-29 13:09:00,
2013-12-29 08:14:00,38.1,35.1,29.92,SSW,206,3.5,3.5,89,0.03,-RA,,0.54,WeatherDisplay:10.37,2013-12-29 13:14:00,
2013-12-29 08:19:00,38.0,35.0,29.92,SSW,207,2.3,2.3,89,0.03,-RA,,0.54,WeatherDisplay:10.37,2013-12-29 13:19:00,
2013-12-29 08:24:00,38.0,35.0,29.91,SSW,207,1.2,1.2,89,0.03,-RA,,0.54,WeatherDisplay:10.37,2013-12-29 13:24:00,
2013-12-29 08:29:00,37.9,34.9,29.91,SSW,210,3.5,3.5,89,0.02,-RA,,0.54,WeatherDisplay:10.37,2013-12-29 13:29:00,
2013-12-29 08:34:00,37.9,34.9,29.92,SSW,210,3.5,3.5,89,0.02,-RA,,0.54,WeatherDisplay:10.37,2013-12-29 13:34:00,
2013-12-29 08:39:00,37.9,34.9,29.91,SSW,212,4.0,4.0,89,0.02,-RA,,0.54,WeatherDisplay:10.37,2013-12-29 13:39:00,
2013-12-29 08:44:00,37.9,34.9,29.91,North,358,2.3,2.3,89,0.02,-RA,,0.54,WeatherDisplay:10.37,2013-12-29 13:44:00,
2013-12-29 08:49:00,37.9,34.9,29.92,North,355,4.0,4.0,89,0.01,-RA,,0.54,WeatherDisplay:10.37,2013-12-29 13:49:00,
2013-12-29 08:54:00,37.9,34.9,29.92,North,357,3.0,3.0,89,0.02,-RA,,0.55,WeatherDisplay:10.37,2013-12-29 13:54:00,
2013-12-29 08:59:00,37.9,34.9,29.92,North,356,3.5,3.5,89,0.02,-RA,,0.55,WeatherDisplay:10.37,2013-12-29 13:59:00,
2013-12-29 09:04:00,37.9,34.9,29.92,North,355,3.5,3.5,89,0.02,-RA,,0.55,WeatherDisplay:10.37,2013-12-29 14:04:00,
2013-12-29 09:09:00,37.9,34.9,29.92,North,356,2.3,2.3,89,0.01,-RA,,0.55,WeatherDisplay:10.37,2013-12-29 14:09:00,
2013-12-29 09:14:00,38.0,35.0,29.92,North,356,2.3,2.3,89,0.01,-RA,,0.55,WeatherDisplay:10.37,2013-12-29 14:14:00,
2013-12-29 09:19:00,38.0,35.0,29.92,North,356,4.0,4.0,89,0.01,-RA,,0.55,WeatherDisplay:10.37,2013-12-29 14:19:00,
2013-12-29 09:24:00,38.0,35.0,29.93,North,356,3.5,3.5,89,0.01,-RA,,0.56,WeatherDisplay:10.37,2013-12-29 14:24:00,
2013-12-29 09:29:00,38.0,35.3,29.93,North,357,4.0,4.0,90,0.02,-RA,,0.56,WeatherDisplay:10.37,2013-12-29 14:29:00,
2013-12-29 09:34:00,38.0,35.3,29.93,North,357,3.0,3.0,90,0.02,-RA,,0.56,WeatherDisplay:10.37,2013-12-29 14:34:00,
2013-12-29 09:39:00,38.0,35.3,29.93,North,356,5.0,5.0,90,0.02,-RA,,0.56,WeatherDisplay:10.37,2013-12-29 14:39:00,
2013-12-29 09:44:00,38.0,35.3,29.93,North,356,2.3,2.3,90,0.03,-RA,,0.57,WeatherDisplay:10.37,2013-12-29 14:44:00,
2013-12-29 09:49:00,38.1,35.4,29.94,NNW,344,4.0,4.0,90,0.03,-RA,,0.57,WeatherDisplay:10.37,2013-12-29 14:49:00,
2013-12-29 09:54:00,38.1,35.4,29.94,North,354,6.0,6.0,90,0.03,-RA,,0.58,WeatherDisplay:10.37,2013-12-29 14:54:00,
2013-12-29 09:59:00,38.2,35.5,29.94,North,351,5.0,5.0,90,0.03,-RA,,0.58,WeatherDisplay:10.37,2013-12-29 14:59:00,
2013-12-29 10:04:00,38.2,35.5,29.94,North,351,2.3,2.3,90,0.03,-RA,,0.58,WeatherDisplay:10.37,2013-12-29 15:04:00,
2013-12-29 10:09:00,38.2,35.5,29.94,North,349,4.0,4.0,90,0.04,-RA,,0.59,WeatherDisplay:10.37,2013-12-29 15:09:00,
2013-12-29 10:14:00,38.3,35.6,29.94,NNW,348,4.0,4.0,90,0.04,-RA,,0.59,WeatherDisplay:10.37,2013-12-29 15:14:00,
2013-12-29 10:19:00,38.3,35.6,29.94,NNW,348,4.0,4.0,90,0.05,-RA,,0.60,WeatherDisplay:10.37,2013-12-29 15:19:00,
2013-12-29 10:24:00,38.4,35.7,29.94,NNW,348,3.5,3.5,90,0.05,-RA,,0.60,WeatherDisplay:10.37,2013-12-29 15:24:00,
2013-12-29 10:29:00,38.4,35.7,29.94,NNW,347,4.0,4.0,90,0.04,-RA,,0.60,WeatherDisplay:10.37,2013-12-29 15:29:00,
2013-12-29 10:34:00,38.5,35.8,29.94,NNW,345,4.0,4.0,90,0.04,-RA,,0.60,WeatherDisplay:10.37,2013-12-29 15:34:00,
2013-12-29 10:39:00,38.6,35.9,29.94,NNW,345,2.3,0.0,90,0.04,-RA,,0.60,WeatherDisplay:10.37,2013-12-29 15:39:00,
2013-12-29 10:44:00,38.7,36.0,29.94,West,272,4.0,4.0,90,0.03,-RA,,0.60,WeatherDisplay:10.37,2013-12-29 15:44:00,
2013-12-29 10:49:00,38.8,36.1,29.94,West,272,3.5,3.5,90,0.03,-RA,,0.60,WeatherDisplay:10.37,2013-12-29 15:49:00,
2013-12-29 10:54:00,38.9,36.2,29.94,West,273,3.5,3.5,90,0.02,-RA,,0.60,WeatherDisplay:10.37,2013-12-29 15:54:00,
2013-12-29 10:59:00,38.9,36.2,29.95,West,270,5.8,5.8,90,0.02,-RA,,0.60,WeatherDisplay:10.37,2013-12-29 15:59:00,
2013-12-29 11:04:00,38.9,36.2,29.95,WNW,289,4.0,4.0,90,0.03,-RA,,0.61,WeatherDisplay:10.37,2013-12-29 16:04:00,
2013-12-29 11:09:00,39.0,36.3,29.95,West,272,3.5,3.5,90,0.02,-RA,,0.61,WeatherDisplay:10.37,2013-12-29 16:09:00,
2013-12-29 11:14:00,39.0,36.3,29.95,West,267,4.0,4.0,90,0.02,-RA,,0.61,WeatherDisplay:10.37,2013-12-29 16:14:00,
2013-12-29 11:19:00,39.0,36.3,29.94,West,266,4.0,4.0,90,0.01,-RA,,0.61,WeatherDisplay:10.37,2013-12-29 16:19:00,
2013-12-29 11:24:00,39.0,36.3,29.94,West,270,3.5,3.5,90,0.01,-RA,,0.61,WeatherDisplay:10.37,2013-12-29 16:24:00,
2013-12-29 11:29:00,39.1,36.4,29.94,WNW,296,3.5,3.5,90,0.01,-RA,,0.61,WeatherDisplay:10.37,2013-12-29 16:29:00,
2013-12-29 11:34:00,39.2,36.5,29.93,West,273,7.0,7.0,90,0.01,-RA,,0.61,WeatherDisplay:10.37,2013-12-29 16:34:00,
2013-12-29 11:39:00,39.2,36.5,29.93,West,280,3.0,3.0,90,0.01,-RA,,0.61,WeatherDisplay:10.37,2013-12-29 16:39:00,
2013-12-29 11:44:00,39.4,36.7,29.92,West,280,3.5,3.5,90,0.01,-RA,,0.61,WeatherDisplay:10.37,2013-12-29 16:44:00,
2013-12-29 11:49:00,39.5,36.8,29.92,West,261,5.0,5.0,90,0.01,-RA,,0.61,WeatherDisplay:10.37,2013-12-29 16:49:00,
2013-12-29 11:54:00,39.6,36.9,29.92,West,261,5.8,5.8,90,0.01,-RA,,0.61,WeatherDisplay:10.37,2013-12-29 16:54:00,
2013-12-29 11:59:00,39.8,37.1,29.92,WSW,254,4.6,4.6,90,0.01,-RA,,0.61,WeatherDisplay:10.37,2013-12-29 16:59:00,
2013-12-29 12:04:00,40.0,37.3,29.92,NW,309,5.8,5.8,90,0.01,-RA,,0.61,WeatherDisplay:10.37,2013-12-29 17:04:00,
2013-12-29 12:09:00,40.0,37.3,29.92,West,270,5.0,5.0,90,0.00,-RA,,0.61,WeatherDisplay:10.37,2013-12-29 17:09:00,
2013-12-29 12:14:00,40.1,37.4,29.92,WSW,249,7.0,7.0,90,0.00,-RA,,0.61,WeatherDisplay:10.37,2013-12-29 17:14:00,
2013-12-29 12:19:00,40.2,37.5,29.92,WSW,248,6.0,6.0,90,0.00,-RA,,0.61,WeatherDisplay:10.37,2013-12-29 17:19:00,
2013-12-29 12:24:00,40.2,37.2,29.91,WSW,250,6.9,6.9,89,0.00,-RA,,0.61,WeatherDisplay:10.37,2013-12-29 17:24:00,
2013-12-29 12:29:00,40.2,37.5,29.91,WSW,251,6.0,6.0,90,0.00,-RA,,0.61,WeatherDisplay:10.37,2013-12-29 17:29:00,
2013-12-29 12:34:00,40.3,37.3,29.91,West,259,6.9,6.9,89,0.00,-RA,,0.61,WeatherDisplay:10.37,2013-12-29 17:34:00,
2013-12-29 12:39:00,40.4,37.4,29.91,NW,314,7.0,7.0,89,0.00,-RA,,0.61,WeatherDisplay:10.37,2013-12-29 17:39:00,
2013-12-29 12:44:00,40.3,37.3,29.91,WSW,257,8.0,8.0,89,0.00,-RA,,0.61,WeatherDisplay:10.37,2013-12-29 17:44:00,
2013-12-29 12:49:00,40.3,37.3,29.91,WSW,242,4.6,4.6,89,0.00,-RA,,0.61,WeatherDisplay:10.37,2013-12-29 17:49:00,
2013-12-29 12:54:00,40.5,37.5,29.91,West,261,9.2,9.2,89,0.00,-RA,,0.61,WeatherDisplay:10.37,2013-12-29 17:54:00,
2013-12-29 12:59:00,40.6,37.6,29.91,WSW,255,7.0,7.0,89,0.00,-RA,,0.61,WeatherDisplay:10.37,2013-12-29 17:59:00,
2013-12-29 13:04:00,40.7,37.4,29.91,NNW,335,6.0,6.0,88,0.00,OVC,,0.61,WeatherDisplay:10.37,2013-12-29 18:04:00,
2013-12-29 13:09:00,40.7,37.4,29.91,WNW,292,6.0,6.0,88,0.00,OVC,,0.61,WeatherDisplay:10.37,2013-12-29 18:09:00,
2013-12-29 13:14:00,40.7,37.4,29.91,West,275,5.0,5.0,88,0.00,OVC,,0.61,WeatherDisplay:10.37,2013-12-29 18:14:00,
2013-12-29 13:19:00,40.7,37.4,29.90,WSW,249,6.0,6.0,88,0.00,OVC,,0.61,WeatherDisplay:10.37,2013-12-29 18:19:00,
2013-12-29 13:24:00,40.7,37.4,29.90,WSW,249,3.5,3.5,88,0.00,OVC,,0.61,WeatherDisplay:10.37,2013-12-29 18:24:00,
2013-12-29 13:29:00,40.7,37.1,29.90,West,259,8.1,8.1,87,0.00,OVC,,0.61,WeatherDisplay:10.37,2013-12-29 18:29:00,
2013-12-29 13:34:00,40.6,37.0,29.90,West,263,7.0,7.0,87,0.00,OVC,,0.61,WeatherDisplay:10.37,2013-12-29 18:34:00,
2013-12-29 13:39:00,40.6,37.0,29.89,WSW,241,2.3,2.3,87,0.00,OVC,,0.61,WeatherDisplay:10.37,2013-12-29 18:39:00,
2013-12-29 13:44:00,40.5,36.9,29.90,SW,236,8.1,8.1,87,0.00,OVC,,0.61,WeatherDisplay:10.37,2013-12-29 18:44:00,
2013-12-29 13:49:00,40.5,36.9,29.90,SW,236,8.0,8.0,87,0.00,OVC,,0.61,WeatherDisplay:10.37,2013-12-29 18:49:00,
2013-12-29 13:54:00,40.7,37.1,29.91,WNW,294,7.0,7.0,87,0.00,OVC,,0.61,WeatherDisplay:10.37,2013-12-29 18:54:00,
2013-12-29 13:59:00,40.7,37.1,29.90,WSW,249,6.0,6.0,87,0.00,OVC,,0.61,WeatherDisplay:10.37,2013-12-29 18:59:00,
2013-12-29 14:04:00,40.7,36.8,29.91,North,7,7.0,7.0,86,0.00,OVC,,0.61,WeatherDisplay:10.37,2013-12-29 19:04:00,
2013-12-29 14:09:00,40.7,36.8,29.91,WNW,299,4.6,4.6,86,0.00,OVC,,0.61,WeatherDisplay:10.37,2013-12-29 19:09:00,
2013-12-29 14:14:00,40.7,36.8,29.91,WSW,257,13.0,13.0,86,0.00,OVC,,0.61,WeatherDisplay:10.37,2013-12-29 19:14:00,
2013-12-29 14:19:00,40.7,36.8,29.90,WSW,245,8.0,8.0,86,0.00,OVC,,0.61,WeatherDisplay:10.37,2013-12-29 19:19:00,
2013-12-29 14:24:00,40.9,37.0,29.90,WSW,240,4.0,4.0,86,0.00,OVC,,0.61,WeatherDisplay:10.37,2013-12-29 19:24:00,
2013-12-29 14:29:00,41.0,36.8,29.89,WSW,240,3.5,3.5,85,0.00,OVC,,0.61,WeatherDisplay:10.37,2013-12-29 19:29:00,
2013-12-29 14:34:00,41.3,37.1,29.89,WSW,241,3.5,3.5,85,0.00,OVC,,0.61,WeatherDisplay:10.37,2013-12-29 19:34:00,
2013-12-29 14:39:00,41.9,37.7,29.89,WSW,240,4.0,4.0,85,0.00,OVC,,0.61,WeatherDisplay:10.37,2013-12-29 19:39:00,
2013-12-29 14:44:00,42.6,38.4,29.89,SW,236,4.6,4.6,85,0.00,OVC,,0.61,WeatherDisplay:10.37,2013-12-29 19:44:00,
2013-12-29 14:49:00,43.0,38.2,29.90,WSW,239,8.1,8.1,83,0.00,OVC,,0.61,WeatherDisplay:10.37,2013-12-29 19:49:00,
2013-12-29 14:54:00,43.3,38.5,29.90,SW,226,9.0,9.0,83,0.00,OVC,,0.61,WeatherDisplay:10.37,2013-12-29 19:54:00,
2013-12-29 14:59:00,43.6,38.5,29.90,SW,234,3.5,3.5,82,0.00,OVC,,0.61,WeatherDisplay:10.37,2013-12-29 19:59:00,
2013-12-29 15:04:00,43.6,38.2,29.91,WSW,239,7.0,7.0,81,0.00,OVC,,0.61,WeatherDisplay:10.37,2013-12-29 20:04:00,
2013-12-29 15:09:00,43.5,38.1,29.91,WSW,241,6.0,6.0,81,0.00,OVC,,0.61,WeatherDisplay:10.37,2013-12-29 20:09:00,
2013-12-29 15:14:00,43.4,38.3,29.90,WSW,241,4.6,4.6,82,0.00,OVC,,0.61,WeatherDisplay:10.37,2013-12-29 20:14:00,
2013-12-29 15:19:00,43.6,38.5,29.91,WSW,243,7.0,7.0,82,0.00,OVC,,0.61,WeatherDisplay:10.37,2013-12-29 20:19:00,
2013-12-29 15:24:00,43.4,38.0,29.91,WSW,243,8.1,8.1,81,0.00,OVC,,0.61,WeatherDisplay:10.37,2013-12-29 20:24:00,
2013-12-29 15:29:00,43.4,38.0,29.91,WSW,245,6.0,6.0,81,0.00,OVC,,0.61,WeatherDisplay:10.37,2013-12-29 20:29:00,
2013-12-29 15:34:00,43.4,38.0,29.90,WSW,239,5.0,5.0,81,0.00,OVC,,0.61,WeatherDisplay:10.37,2013-12-29 20:34:00,
2013-12-29 15:39:00,43.4,38.0,29.91,WSW,245,9.2,9.2,81,0.00,OVC,,0.61,WeatherDisplay:10.37,2013-12-29 20:39:00,
2013-12-29 15:44:00,43.4,38.0,29.91,WSW,244,6.9,6.9,81,0.00,OVC,,0.61,WeatherDisplay:10.37,2013-12-29 20:44:00,
2013-12-29 15:49:00,43.5,38.1,29.91,WSW,244,6.0,6.0,81,0.00,OVC,,0.61,WeatherDisplay:10.37,2013-12-29 20:49:00,
2013-12-29 15:54:00,43.7,38.3,29.91,WSW,245,4.0,4.0,81,0.00,OVC,,0.61,WeatherDisplay:10.37,2013-12-29 20:54:00,
2013-12-29 15:59:00,43.7,37.9,29.91,West,262,4.0,4.0,80,0.00,OVC,,0.61,WeatherDisplay:10.37,2013-12-29 20:59:00,
2013-12-29 16:04:00,44.0,38.2,29.91,WSW,251,4.0,4.0,80,0.00,BKN,,0.61,WeatherDisplay:10.37,2013-12-29 21:04:00,
2013-12-29 16:09:00,43.9,37.8,29.91,WSW,241,8.1,8.1,79,0.00,BKN,,0.61,WeatherDisplay:10.37,2013-12-29 21:09:00,
2013-12-29 16:14:00,43.8,37.7,29.91,WSW,247,5.0,5.0,79,0.00,BKN,,0.61,WeatherDisplay:10.37,2013-12-29 21:14:00,
2013-12-29 16:19:00,44.3,38.2,29.91,WSW,239,5.0,5.0,79,0.00,BKN,,0.61,WeatherDisplay:10.37,2013-12-29 21:19:00,
2013-12-29 16:24:00,44.2,37.8,29.91,SW,236,8.0,8.0,78,0.00,BKN,,0.61,WeatherDisplay:10.37,2013-12-29 21:24:00,
2013-12-29 16:29:00,44.2,37.8,29.92,WSW,237,5.8,5.8,78,0.00,BKN,,0.61,WeatherDisplay:10.37,2013-12-29 21:29:00,
2013-12-29 16:34:00,44.1,37.7,29.92,WSW,244,10.4,10.4,78,0.00,BKN,,0.61,WeatherDisplay:10.37,2013-12-29 21:34:00,
2013-12-29 16:39:00,43.7,37.6,29.93,WSW,243,3.0,3.0,79,0.00,BKN,,0.61,WeatherDisplay:10.37,2013-12-29 21:39:00,
2013-12-29 16:44:00,43.5,37.4,29.93,West,260,10.4,10.4,79,0.00,BKN,,0.61,WeatherDisplay:10.37,2013-12-29 21:44:00,
2013-12-29 16:49:00,43.4,37.6,29.93,WSW,251,7.0,7.0,80,0.00,BKN,,0.61,WeatherDisplay:10.37,2013-12-29 21:49:00,
2013-12-29 16:54:00,43.4,37.6,29.94,WSW,247,6.0,6.0,80,0.00,BKN,,0.61,WeatherDisplay:10.37,2013-12-29 21:54:00,
2013-12-29 16:59:00,43.4,37.6,29.94,West,263,7.0,7.0,80,0.00,BKN,,0.61,WeatherDisplay:10.37,2013-12-29 21:59:00,
2013-12-29 17:04:00,43.4,37.6,29.94,WSW,240,5.8,5.8,80,0.00,BKN,,0.61,WeatherDisplay:10.37,2013-12-29 22:04:00,
2013-12-29 17:09:00,43.3,37.5,29.94,WSW,239,7.0,7.0,80,0.00,BKN,,0.61,WeatherDisplay:10.37,2013-12-29 22:09:00,
2013-12-29 17:14:00,43.3,37.5,29.94,WSW,238,4.6,4.6,80,0.00,BKN,,0.61,WeatherDisplay:10.37,2013-12-29 22:14:00,
2013-12-29 17:19:00,43.3,37.5,29.94,WSW,242,5.0,5.0,80,0.00,BKN,,0.61,WeatherDisplay:10.37,2013-12-29 22:19:00,
2013-12-29 17:24:00,43.3,37.5,29.94,SW,233,4.6,4.6,80,0.00,BKN,,0.61,WeatherDisplay:10.37,2013-12-29 22:24:00,
2013-12-29 17:29:00,43.3,37.5,29.95,SW,235,8.0,8.0,80,0.00,BKN,,0.61,WeatherDisplay:10.37,2013-12-29 22:29:00,
2013-12-29 17:34:00,43.3,37.5,29.95,SW,234,3.5,3.5,80,0.00,BKN,,0.61,WeatherDisplay:10.37,2013-12-29 22:34:00,
2013-12-29 17:39:00,43.2,37.4,29.95,SW,234,6.0,6.0,80,0.00,BKN,,0.61,WeatherDisplay:10.37,2013-12-29 22:39:00,
2013-12-29 17:44:00,43.2,37.4,29.95,SW,234,5.0,5.0,80,0.00,BKN,,0.61,WeatherDisplay:10.37,2013-12-29 22:44:00,
2013-12-29 17:49:00,43.2,37.4,29.95,SW,225,6.9,6.9,80,0.00,BKN,,0.61,WeatherDisplay:10.37,2013-12-29 22:49:00,
2013-12-29 17:54:00,43.1,37.3,29.95,SW,226,7.0,7.0,80,0.00,BKN,,0.61,WeatherDisplay:10.37,2013-12-29 22:54:00,
2013-12-29 17:59:00,43.1,37.7,29.96,SW,232,5.0,5.0,81,0.00,BKN,,0.61,WeatherDisplay:10.37,2013-12-29 22:59:00,
2013-12-29 18:04:00,43.1,37.7,29.96,SW,232,4.0,4.0,81,0.00,OVC,,0.61,WeatherDisplay:10.37,2013-12-29 23:04:00,
2013-12-29 18:09:00,43.0,37.6,29.96,WSW,242,7.0,7.0,81,0.00,OVC,,0.61,WeatherDisplay:10.37,2013-12-29 23:09:00,
2013-12-29 18:14:00,43.0,37.6,29.96,WSW,238,4.0,4.0,81,0.00,OVC,,0.61,WeatherDisplay:10.37,2013-12-29 23:14:00,
2013-12-29 18:19:00,42.9,37.5,29.97,WSW,243,5.0,5.0,81,0.00,OVC,,0.61,WeatherDisplay:10.37,2013-12-29 23:19:00,
2013-12-29 18:24:00,42.9,37.5,29.97,SW,229,7.0,7.0,81,0.00,OVC,,0.61,WeatherDisplay:10.37,2013-12-29 23:24:00,
2013-12-29 18:29:00,42.9,37.5,29.97,SW,231,7.0,7.0,81,0.00,OVC,,0.61,WeatherDisplay:10.37,2013-12-29 23:29:00,
2013-12-29 18:34:00,42.9,37.5,29.97,WSW,245,4.0,4.0,81,0.00,OVC,,0.61,WeatherDisplay:10.37,2013-12-29 23:34:00,
2013-12-29 18:39:00,42.8,37.4,29.98,SW,236,6.0,6.0,81,0.00,OVC,,0.61,WeatherDisplay:10.37,2013-12-29 23:39:00,
2013-12-29 18:44:00,42.8,37.4,29.98,SW,236,4.6,4.6,81,0.00,OVC,,0.61,WeatherDisplay:10.37,2013-12-29 23:44:00,
2013-12-29 18:49:00,42.7,37.6,29.98,SW,236,6.0,6.0,82,0.00,OVC,,0.61,WeatherDisplay:10.37,2013-12-29 23:49:00,
2013-12-29 18:54:00,42.7,37.6,29.98,SW,236,5.0,5.0,82,0.00,OVC,,0.61,WeatherDisplay:10.37,2013-12-29 23:54:00,
2013-12-29 18:59:00,42.7,37.6,29.98,SW,234,5.0,5.0,82,0.00,OVC,,0.61,WeatherDisplay:10.37,2013-12-29 23:59:00,
2013-12-29 19:04:00,42.7,37.6,29.98,SW,233,4.0,4.0,82,0.00,OVC,,0.61,WeatherDisplay:10.37,2013-12-30 00:04:00,
2013-12-29 19:09:00,42.7,37.6,29.98,SW,234,3.5,3.5,82,0.00,OVC,,0.61,WeatherDisplay:10.37,2013-12-30 00:09:00,
2013-12-29 19:14:00,42.7,37.6,29.99,SW,232,7.0,7.0,82,0.00,OVC,,0.61,WeatherDisplay:10.37,2013-12-30 00:14:00,
2013-12-29 19:19:00,42.8,37.7,29.99,SW,236,7.0,7.0,82,0.00,OVC,,0.61,WeatherDisplay:10.37,2013-12-30 00:19:00,
2013-12-29 19:24:00,42.8,37.7,29.99,SW,233,3.0,3.0,82,0.00,OVC,,0.61,WeatherDisplay:10.37,2013-12-30 00:24:00,
2013-12-29 19:29:00,42.8,37.7,29.99,SW,234,3.0,3.0,82,0.00,OVC,,0.61,WeatherDisplay:10.37,2013-12-30 00:29:00,
2013-12-29 19:34:00,42.8,37.7,29.98,SW,236,3.5,3.5,82,0.00,OVC,,0.61,WeatherDisplay:10.37,2013-12-30 00:34:00,
2013-12-29 19:39:00,42.7,37.6,29.99,SW,235,4.0,4.0,82,0.00,OVC,,0.61,WeatherDisplay:10.37,2013-12-30 00:39:00,
2013-12-29 19:44:00,42.7,37.6,29.99,SW,236,3.5,3.5,82,0.00,OVC,,0.61,WeatherDisplay:10.37,2013-12-30 00:44:00,
2013-12-29 19:49:00,42.6,37.8,29.99,SW,236,4.6,4.6,83,0.00,OVC,,0.61,WeatherDisplay:10.37,2013-12-30 00:49:00,
2013-12-29 19:54:00,42.6,37.8,29.99,SW,236,3.0,3.0,83,0.00,OVC,,0.61,WeatherDisplay:10.37,2013-12-30 00:54:00,
2013-12-29 19:59:00,42.5,37.4,30.00,NW,310,9.2,9.2,82,0.00,OVC,,0.61,WeatherDisplay:10.37,2013-12-30 00:59:00,
2013-12-29 20:04:00,41.3,35.6,30.01,NNW,338,8.1,8.1,80,0.00,OVC,,0.61,WeatherDisplay:10.37,2013-12-30 01:04:00,
2013-12-29 20:09:00,40.7,35.0,30.01,North,351,7.0,7.0,80,0.00,OVC,,0.61,WeatherDisplay:10.37,2013-12-30 01:09:00,
2013-12-29 20:14:00,40.2,34.8,30.01,West,272,10.4,10.4,81,0.00,OVC,,0.61,WeatherDisplay:10.37,2013-12-30 01:14:00,
2013-12-29 20:19:00,39.6,33.9,30.02,North,2,8.1,8.1,80,0.00,OVC,,0.61,WeatherDisplay:10.37,2013-12-30 01:19:00,
2013-12-29 20:24:00,39.2,33.9,30.01,NNE,21,8.0,8.0,81,0.00,OVC,,0.61,WeatherDisplay:10.37,2013-12-30 01:24:00,
2013-12-29 20:29:00,38.9,33.6,30.02,North,2,8.1,8.1,81,0.00,OVC,,0.61,WeatherDisplay:10.37,2013-12-30 01:29:00,
2013-12-29 20:34:00,38.7,33.7,30.02,NW,322,9.2,9.2,82,0.00,OVC,,0.61,WeatherDisplay:10.37,2013-12-30 01:34:00,
2013-12-29 20:38:00,38.6,33.6,30.03,WNW,285,8.1,8.1,82,0.00,OVC,,0.61,WeatherDisplay:10.37,2013-12-30 01:38:00,
2013-12-29 20:43:00,38.5,33.5,30.03,North,353,10.0,10.0,82,0.00,OVC,,0.61,WeatherDisplay:10.37,2013-12-30 01:43:00,
2013-12-29 20:48:00,38.4,33.4,30.03,WNW,303,8.0,8.0,82,0.00,OVC,,0.61,WeatherDisplay:10.37,2013-12-30 01:48:00,
2013-12-29 20:53:00,38.1,33.4,30.03,North,7,12.0,12.0,83,0.00,OVC,,0.61,WeatherDisplay:10.37,2013-12-30 01:53:00,
2013-12-29 20:58:00,37.6,32.9,30.04,North,2,6.0,6.0,83,0.00,OVC,,0.61,WeatherDisplay:10.37,2013-12-30 01:58:00,
2013-12-29 21:03:00,37.1,32.7,30.04,North,349,9.0,9.0,84,0.00,OVC,,0.61,WeatherDisplay:10.37,2013-12-30 02:03:00,
2013-12-29 21:08:00,36.7,32.3,30.05,NNW,334,13.0,13.0,84,0.00,OVC,,0.61,WeatherDisplay:10.37,2013-12-30 02:08:00,
2013-12-29 21:13:00,36.0,31.6,30.06,NW,323,13.8,13.8,84,0.00,OVC,,0.61,WeatherDisplay:10.37,2013-12-30 02:13:00,
2013-12-29 21:18:00,34.9,30.8,30.06,NW,322,11.5,11.5,85,0.00,OVC,,0.61,WeatherDisplay:10.37,2013-12-30 02:18:00,
2013-12-29 21:23:00,34.3,30.3,30.06,West,276,11.5,11.5,85,0.00,OVC,,0.61,WeatherDisplay:10.37,2013-12-30 02:23:00,
2013-12-29 21:28:00,33.8,29.8,30.06,NNE,12,10.4,10.4,85,0.00,OVC,,0.61,WeatherDisplay:10.37,2013-12-30 02:28:00,
2013-12-29 21:33:00,33.4,29.7,30.06,NNE,20,12.0,12.0,86,0.00,OVC,,0.61,WeatherDisplay:10.37,2013-12-30 02:33:00,
2013-12-29 21:38:00,33.2,29.5,30.07,NNW,334,11.5,11.5,86,0.00,OVC,,0.61,WeatherDisplay:10.37,2013-12-30 02:38:00,
2013-12-29 21:43:00,33.2,29.5,30.07,North,349,6.0,6.0,86,0.00,OVC,,0.61,WeatherDisplay:10.37,2013-12-30 02:43:00,
2013-12-29 21:48:00,33.2,29.8,30.07,NNW,340,4.6,4.6,87,0.00,OVC,,0.61,WeatherDisplay:10.37,2013-12-30 02:48:00,
2013-12-29 21:53:00,32.9,29.5,30.07,NW,326,5.8,5.8,87,0.00,OVC,,0.61,WeatherDisplay:10.37,2013-12-30 02:53:00,
2013-12-29 21:58:00,32.5,29.1,30.07,NW,310,7.0,7.0,87,0.00,OVC,,0.61,WeatherDisplay:10.37,2013-12-30 02:58:00,
2013-12-29 22:03:00,32.3,28.9,30.07,NE,38,7.0,7.0,87,0.00,OVC,,0.61,WeatherDisplay:10.37,2013-12-30 03:03:00,
2013-12-29 22:08:00,32.2,28.8,30.07,NW,321,4.6,4.6,87,0.00,OVC,,0.61,WeatherDisplay:10.37,2013-12-30 03:08:00,
2013-12-29 22:13:00,32.1,28.7,30.08,WNW,290,4.0,4.0,87,0.00,OVC,,0.61,WeatherDisplay:10.37,2013-12-30 03:13:00,
2013-12-29 22:18:00,32.0,28.6,30.08,NNW,345,9.2,9.2,87,0.00,OVC,,0.61,WeatherDisplay:10.37,2013-12-30 03:18:00,
2013-12-29 22:23:00,32.0,28.6,30.08,North,7,5.0,5.0,87,0.00,OVC,,0.61,WeatherDisplay:10.37,2013-12-30 03:23:00,
2013-12-29 22:28:00,31.9,28.5,30.08,NW,324,9.2,9.2,87,0.00,OVC,,0.61,WeatherDisplay:10.37,2013-12-30 03:28:00,
2013-12-29 22:33:00,31.9,28.5,30.07,NNW,327,3.5,3.5,87,0.00,OVC,,0.61,WeatherDisplay:10.37,2013-12-30 03:33:00,
2013-12-29 22:38:00,31.8,28.4,30.08,North,349,7.0,7.0,87,0.00,OVC,,0.61,WeatherDisplay:10.37,2013-12-30 03:38:00,
2013-12-29 22:43:00,31.8,28.4,30.08,North,355,6.0,6.0,87,0.00,OVC,,0.61,WeatherDisplay:10.37,2013-12-30 03:43:00,
2013-12-29 22:48:00,31.8,28.4,30.08,WNW,301,6.0,6.0,87,0.00,OVC,,0.61,WeatherDisplay:10.37,2013-12-30 03:48:00,
2013-12-29 22:53:00,31.7,28.3,30.08,NW,318,4.0,4.0,87,0.00,OVC,,0.61,WeatherDisplay:10.37,2013-12-30 03:53:00,
2013-12-29 22:58:00,31.7,28.3,30.08,North,2,9.2,9.2,87,0.00,OVC,,0.61,WeatherDisplay:10.37,2013-12-30 03:58:00,
2013-12-29 23:03:00,31.6,28.2,30.08,NNW,347,8.1,8.1,87,0.00,OVC,,0.61,WeatherDisplay:10.37,2013-12-30 04:03:00,
2013-12-29 23:08:00,31.5,28.1,30.08,WNW,289,3.0,3.0,87,0.00,OVC,,0.61,WeatherDisplay:10.37,2013-12-30 04:08:00,
2013-12-29 23:13:00,31.5,28.1,30.08,NW,325,8.1,8.1,87,0.00,OVC,,0.61,WeatherDisplay:10.37,2013-12-30 04:13:00,
2013-12-29 23:18:00,31.5,28.1,30.08,NNW,344,4.6,4.6,87,0.00,OVC,,0.61,WeatherDisplay:10.37,2013-12-30 04:18:00,
2013-12-29 23:23:00,31.4,28.0,30.09,West,278,6.0,6.0,87,0.00,OVC,,0.61,WeatherDisplay:10.37,2013-12-30 04:23:00,
2013-12-29 23:28:00,31.4,27.7,30.08,NW,318,4.0,4.0,86,0.00,OVC,,0.61,WeatherDisplay:10.37,2013-12-30 04:28:00,
2013-12-29 23:33:00,31.4,27.7,30.08,NNW,333,4.0,4.0,86,0.00,OVC,,0.61,WeatherDisplay:10.37,2013-12-30 04:33:00,
2013-12-29 23:38:00,31.4,27.7,30.09,North,352,4.0,4.0,86,0.00,OVC,,0.61,WeatherDisplay:10.37,2013-12-30 04:38:00,
2013-12-29 23:43:00,31.4,27.7,30.09,North,350,4.0,4.0,86,0.00,OVC,,0.61,WeatherDisplay:10.37,2013-12-30 04:43:00,
2013-12-29 23:48:00,31.4,27.7,30.09,NW,317,3.5,3.5,86,0.00,OVC,,0.61,WeatherDisplay:10.37,2013-12-30 04:48:00,
2013-12-29 23:53:00,31.4,27.7,30.09,North,357,6.0,6.0,86,0.00,OVC,,0.61,WeatherDisplay:10.37,2013-12-30 04:53:00,
2013-12-29 23:58:00,31.4,27.7,30.09,NNW,340,6.0,6.0,86,0.00,OVC,,0.61,WeatherDisplay:10.37,2013-12-30 04:58:00,